Tracking 19564 objects as of 19-Mar-2019
HD Live streaming from Space Station
objects crossing your sky now

FENGYUN 1C DEB

Track FENGYUN 1C DEB now!
10-day predictions


NORAD ID: 30338
Int'l Code: 1999-025AAZ
Perigee: 565.4 km
Apogee: 1,061.3 km
Inclination: 98.8 °
Period: 101.0 minutes
Semi major axis: 7184 km
RCS: 0.0507 m2 (small)
Launch date: May 10, 1999
Source: People's Republic of China (PRC)
Launch site: Taiyaun Space Center, China (TSC)

Note: This is SATELLITE DEBRIS
aabbcc
Your satellite tracking list
Your tracking list is empty




NASA's NSSDC Master Catalog

Two Line Element Set (TLE):
1 30338U 99025AAZ 19077.95320781 +.00000431 +00000-0 +11125-3 0  9992
2 30338 098.7522 133.4378 0345100 254.6351 233.9406 14.25683337629400
Source of the keplerian elements: AFSPC